• MPC Preparation (Info)

  • MPEC 2016-O49 : 2014 LP28

    The following Minor Planet Electronic Circular may be linked-to from your own Web pages, but must not otherwise be redistributed electronically.

    A form allowing access to any MPEC is at the bottom of this page.


    Read MPEC 2016-O48 Read MPEC 2016-O50


    M.P.E.C. 2016-O49                                Issued 2016 July 16, 21:27 UT
    
         The Minor Planet Electronic Circulars contain information on unusual
             minor planets and routine data on comets.  They are published
        on behalf of Division F of the International Astronomical Union by the
              Minor Planet Center, Smithsonian Astrophysical Observatory,
                              Cambridge, MA 02138, U.S.A.
    
                 Prepared using the Tamkin Foundation Computer Network
    
                                  MPC@CFA.HARVARD.EDU
                URL https://www.minorplanetcenter.net/    ISSN 1523-6714
    
                                       2014 LP28
    
    Observations:
         K14L28P  C2013 07 16.52454 21 27 12.549-04 44 46.28         22.0 wLEO049F51
         K14L28P  C2013 07 16.54156 21 27 12.477-04 44 46.57         22.1 wLEO049F51
         K14L28P  C2013 07 16.55568 21 27 12.413-04 44 46.78         22.0 wLEO049F51
         K14L28P  C2013 07 16.57185 21 27 12.345-04 44 47.00         21.9 wLEO049F51
         K14L28P* C2014 06 03.55872 21 35 19.407-04 31 48.22         22.1 wLEO049F51
         K14L28P  C2014 06 03.57125 21 35 19.395-04 31 48.14         22.0 wLEO049F51
         K14L28P  C2014 06 03.58380 21 35 19.375-04 31 48.16         22.4 wLEO049F51
         K14L28P  C2014 08 20.37535 21 30 40.277-04 49 48.68         21.9 wLEO049F51
         K14L28P  C2014 08 20.38810 21 30 40.217-04 49 48.89         22.0 wLEO049F51
         K14L28P  C2014 08 20.40088 21 30 40.156-04 49 49.31         22.1 wLEO049F51
         K14L28P  C2014 08 20.41366 21 30 40.086-04 49 49.54         22.1 wLEO049F51
         K14L28P  C2014 08 21.35193 21 30 35.631-04 50 17.13         22.1 wLEO049F51
         K14L28P  C2014 08 21.36479 21 30 35.544-04 50 17.56         21.9 wLEO049F51
         K14L28P  C2014 08 21.37766 21 30 35.487-04 50 17.72         21.9 wLEO049F51
         K14L28P  C2014 08 21.39056 21 30 35.442-04 50 18.07         22.1 wLEO049F51
         K14L28P  C2015 07 28.44666 21 38 38.647-04 30 58.68         21.2 iLEO049F51
         K14L28P  C2015 07 28.45924 21 38 38.578-04 30 59.25         21.6 iLEO049F51
         K14L28P  C2015 07 28.47183 21 38 38.514-04 30 59.14         21.6 iLEO049F51
    
    Observer details:
    F51 Pan-STARRS 1, Haleakala.  Observers B. Gibson, T. Goggia, N. Primak,
        A. Schultz, M. Willman.  Measurers K. Chambers, S. Chastel, Y.-T. Chen,
        L. Denneau, H. Flewelling, M. Holman, M. Huber, R. Jedicke, M. Lackner,
        E. Lilly, H.-W. Lin, E. Magnier, M. Micheli, M. Payne, P. Veres,
        R. Wainscoat, C. Waters, R. Weryk.  1.8-m Ritchey-Chretien + CCD.
    
    Orbital elements:
    2014 LP28
    Epoch 2016 July 31.0 TT = JDT 2457600.5                 MPC
    M  14.74706              (2000.0)            P               Q
    n   0.00376033     Peri.  131.83743     +0.63383114     +0.77336881
    a  40.9561414      Node   177.39755     -0.76606580     +0.62992812
    e   0.0449023      Incl.   16.11177     -0.10677680     +0.07135300
    P 262              H    5.9           G   0.15           U   4
    Residuals in seconds of arc
    130716 F51  0.0   0.0     140603 F51  0.1-  0.0     140821 F51  0.2-  0.2-
    130716 F51  0.0   0.0     140820 F51  0.0   0.1-    140821 F51  0.1-  0.0
    130716 F51  0.0   0.0     140820 F51  0.1+  0.0     140821 F51  0.1+  0.0
    130716 F51  0.0   0.1+    140820 F51  0.1+  0.0     150728 F51  0.1+  0.1+
    140603 F51  0.0   0.1+    140820 F51  0.0   0.1+    150728 F51  0.0   0.2-
    140603 F51  0.0   0.1+    140821 F51  0.1+  0.2-    150728 F51  0.1-  0.2+
    
    Ephemeris:
    2014 LP28                a,e,i = 40.96, 0.04, 16                 q = 39.117
    Date    TT    R. A. (2000) Decl.     Delta      r     Elong.  Phase     V
    2016 06 16    21 47 05.9 -04 13 32  38.7074 39.1819   117.2     1.3    22.0
    ...
    2016 07 01    21 46 28.8 -04 14 50  38.5026 39.1824   131.4     1.1    22.0
    ...
    2016 07 09    21 46 02.3 -04 16 22  38.4101 39.1827   139.0     1.0    21.9
    ...
    2016 07 15    21 45 39.9 -04 17 51  38.3499 39.1829   144.6     0.9    21.9
    2016 07 16    21 45 35.9 -04 18 08  38.3407 39.1829   145.5     0.8    21.9
    2016 07 17    21 45 32.0 -04 18 25  38.3317 39.1829   146.5     0.8    21.9
    ...
    2016 07 23    21 45 07.1 -04 20 18  38.2829 39.1831   152.0     0.7    21.9
    ...
    2016 07 31    21 44 31.7 -04 23 12  38.2322 39.1834   159.3     0.5    21.9
    ...
    2016 08 15    21 43 21.1 -04 29 40  38.1850 39.1839   170.4     0.2    21.8
    
    A. U. Tomatic                (C) Copyright 2016 MPC           M.P.E.C. 2016-O49
    

    Read MPEC 2016-O48 Read MPEC 2016-O50


    MPEC number:

    Enter an MPEC number in one of the following forms:

    • 1997-B01 (the full form)
    • J97B01 (the packed version of the full form)
    • B01 (the abbreviated form)